Trenton, NJ

12:46 AM EST on November 12, 2019 (GMT -0500)
Trenton Mercer

Weather History for KTTN - October, 2019

Change the Weather History Date:

Saturday, October 19, 2019

  Actual Average Record
Temperature  
Mean Temperature 46 °F 53 °F  
Max Temperature 61 °F 64 °F 86 °F (2016)
Min Temperature 32 °F 43 °F 27 °F (2015)
Degree Days  
Heating Degree Days 18 12  
Month to date heating degree days 137 170  
Since 1 July heating degree days 155 235  
Cooling Degree Days 0 0  
Month to date cooling degree days 26 7  
Year to date cooling degree days 1163 962  
Moisture  
Dew Point 36 °F    
Average Humidity 69    
Maximum Humidity 100    
Minimum Humidity 37    
Precipitation  
Precipitation 0.00 in 0.12 in 3.38 in (1966)
Month to date precipitation 2.21 2.60  
Year to date precipitation 40.87 37.85  
Sea Level Pressure  
Sea Level Pressure 30.04 in    
Wind  
Wind Speed 2 mph ()    
Max Wind Speed 9 mph    
Max Gust Speed 15 mph    
Visibility 10.0 miles    
Events      
T = Trace of Precipitation, MM = Missing Value Source: Averaged Metar Reports

Daily Weather History Graph

Daily Weather History Graph

Search for Another Location

Airport or City:

Astronomy

Oct. 19, 2019 Rise Set
Actual Time 7:13 AM EDT 6:13 PM EDT
Civil Twilight 6:46 AM EDT 6:41 PM EDT
Nautical Twilight 6:14 AM EDT 7:12 PM EDT
Astronomical Twilight 5:43 AM EDT 7:44 PM EDT
Moon 10:19 PM EDT (10/19) 12:44 PM EDT (10/19)
Length of Visible Light 11h 54m
Length of Day
10h 59m
Waning Gibbous, 70% of the Moon is Illuminated
Oct 19
Waning Gibbous
Oct 21
Last Quarter
Oct 27
New
Nov 4
First Quarter
Nov 12
Full

Hourly Weather History & Observations

Time (EDT) Temp. Windchill Dew Point Humidity Pressure Visibility Wind Dir Wind Speed Gust Speed Precip Events Conditions
12:53 AM 39.9 °F - 35.1 °F 83% 30.03 in 10.0 mi Calm Calm - N/A   Clear
1:53 AM 37.9 °F - 35.1 °F 89% 30.03 in 10.0 mi Calm Calm - N/A   Clear
2:53 AM 37.9 °F - 35.1 °F 89% 30.03 in 10.0 mi Calm Calm - N/A   Clear
3:53 AM 36.0 °F - 35.1 °F 97% 30.02 in 10.0 mi Calm Calm - N/A   Clear
4:53 AM 34.0 °F 31.0 °F 33.1 °F 96% 30.03 in 10.0 mi NW 3.5 mph - N/A   Clear
5:53 AM 33.1 °F 30.0 °F 32.0 °F 96% 30.06 in 10.0 mi SSW 3.5 mph - N/A   Clear
6:53 AM 33.1 °F 30.0 °F 33.1 °F 100% 30.08 in 10.0 mi SW 3.5 mph - N/A   Clear
7:53 AM 37.0 °F - 35.1 °F 93% 30.09 in 10.0 mi Calm Calm - N/A   Clear
8:53 AM 43.0 °F 40.3 °F 37.0 °F 80% 30.10 in 10.0 mi West 4.6 mph - N/A   Clear
9:53 AM 48.0 °F - 39.0 °F 71% 30.10 in 10.0 mi West 3.5 mph - N/A   Clear
10:53 AM 51.1 °F - 37.0 °F 59% 30.09 in 10.0 mi WNW 6.9 mph - N/A   Clear
11:53 AM 55.0 °F - 39.0 °F 55% 30.09 in 10.0 mi NW 8.1 mph - N/A   Clear
12:53 PM 55.9 °F - 37.9 °F 51% 30.07 in 10.0 mi Variable 6.9 mph - N/A   Clear
1:53 PM 57.9 °F - 36.0 °F 44% 30.04 in 10.0 mi SW 5.8 mph - N/A   Clear
2:53 PM 60.1 °F - 36.0 °F 41% 30.03 in 10.0 mi West 6.9 mph - N/A   Clear
3:53 PM 61.0 °F - 36.0 °F 39% 30.02 in 10.0 mi West 8.1 mph - N/A   Clear
4:53 PM 60.1 °F - 35.1 °F 39% 30.01 in 10.0 mi Variable 3.5 mph - N/A   Clear
5:53 PM 59.0 °F - 34.0 °F 39% 30.00 in 10.0 mi SW 3.5 mph - N/A   Clear
6:53 PM 53.1 °F - 36.0 °F 52% 30.01 in 10.0 mi Calm Calm - N/A   Clear
7:53 PM 51.1 °F - 37.9 °F 61% 30.01 in 10.0 mi Calm Calm - N/A   Clear
8:53 PM 52.0 °F - 39.0 °F 61% 30.03 in 10.0 mi Calm Calm - N/A   Clear
9:53 PM 48.9 °F - 39.9 °F 71% 30.03 in 10.0 mi Calm Calm - N/A   Clear
10:53 PM 48.0 °F - 39.9 °F 74% 30.03 in 10.0 mi Calm Calm - N/A   Clear
11:53 PM 46.9 °F - 39.9 °F 77% 30.02 in 10.0 mi Calm Calm - N/A   Clear